CAPE
164 303 333 225 159 191 290 565 665 883 961 970 915 839 803 1120 1060 1026 1696 1587 1945 2165 2287 1239 1443 2013 1949 2227 2274 1993 2091 1471 1724 1028 835 870 842 755 818 952 1007 1211 1283
109 245 329 295 202 183 316 543 683 899 1208 995 1023 904 724 974 912 1010 1324 1441 1912 1934 1934 1929 1322 2101 1562 2574 2442 2343 1345 1332 1740 1168 719 395 443 366 702 1051 1157 1273 1362
67 178 288 323 213 223 230 423 711 803 869 897 930 1067 1255 1052 1175 1271 1176 1268 1580 1729 2096 1931 1483 1883 1423 1484 2543 2377 2074 1163 1767 2258 1458 496 492 724 898 1219 1221 1680 1457
41 75 207 309 242 244 296 289 587 821 695 827 895 734 405 547 835 1070 1053 1218 1336 1433 1749 1675 1725 1860 1200 1647 1783 1946 2443 1812 1328 1437 1356 1869 1719 860 768 1037 1080 1281 1326
4 65 131 229 240 237 304 314 582 906 876 1172 925 486 429 450 645 786 1079 1069 1442 1493 1178 1803 1822 1582 861 1365 2144 2099 2551 1772 1228 1021 1303 1471 1106 1252 919 598 928 887 944
8 48 118 179 245 232 274 301 489 836 624 1166 557 668 519 561 655 632 722 793 760 903 1459 1553 1796 1526 1332 1215 1513 2178 2070 2238 1847 1361 1219 979 829 719 756 645 809 900 805
59 49 120 160 232 240 247 302 405 590 629 988 790 425 423 501 471 487 427 595 615 780 1000 1336 1407 1163 1504 1444 1238 1937 1973 1858 1737 1900 1302 1223 765 714 925 778 616 646 678
136 67 95 181 213 291 273 294 315 464 523 642 414 717 585 554 428 405 527 418 529 538 560 781 936 991 1378 1326 1399 866 1002 1022 1369 1679 1763 1023 1098 966 1035 964 780 386 429
57 126 92 228 262 313 298 331 330 397 347 425 602 786 1012 728 572 848 827 531 704 831 920 1044 966 803 929 920 1027 734 876 1229 1401 1063 1410 1070 510 831 647 715 631 418 80
33 138 118 236 346 339 336 395 388 318 309 321 495 622 704 975 975 986 1058 831 922 1046 1095 1272 1193 1112 1137 1211 1383 889 1083 1164 935 745 820 1144 490 829 787 635 505 478 367
73 117 147 261 368 361 341 481 446 301 322 352 454 478 547 678 898 820 1109 1208 1404 1346 1348 1467 1385 1280 1195 1257 1466 1302 931 1174 1006 994 1022 953 1117 742 380 345 394 368 415
65 47 200 336 345 352 364 591 535 492 453 390 537 723 688 775 589 791 926 1216 1315 1285 1472 1435 1320 1095 1185 1179 1304 1193 794 902 896 735 755 727 585 804 1047 527 528 509 759
165 66 103 373 323 233 457 495 658 661 661 666 695 761 766 853 611 838 942 1219 1249 1259 1047 1035 1047 1032 991 987 1003 1015 861 919 847 682 768 739 772 756 813 642 598 539 637
226 100 31 80 82 69 106 513 662 718 789 758 800 785 772 700 747 934 1085 1141 1139 1158 1093 1151 1114 951 760 830 1024 925 811 804 757 872 788 749 782 909 1010 719 938 196 548
396 276 46 17 46 44 83 445 732 847 876 858 805 848 809 761 933 800 1020 1064 920 760 725 735 734 961 1010 788 1152 1114 939 797 844 925 1012 526 579 175 323 501 247 132 490
382 413 288 85 50 35 38 110 669 1035 750 433 284 667 1011 993 961 710 946 856 572 465 476 461 596 622 340 0 0 0 155 557 661 651 708 967 17 1 0 2 7 54 140
573 386 412 301 257 85 61 61 393 752 479 229 297 722 873 642 673 773 818 372 117 290 240 375 387 110 12 0 0 0 0 84 181 500 731 947 133 58 174 0 0 0 0
613 623 556 420 114 78 93 52 70 174 486 254 244 341 254 369 541 152 85 44 81 103 116 141 150 52 0 0 0 0 0 27 213 112 498 790 84 0 0 0 0 0 0
40 57 76 120 170 86 52 57 38 24 45 97 89 138 70 125 108 36 17 41 62 91 12 0 0 0 0 0 0 0 12 10 0 0 0 0 0 0 0 0 61 0 0
5 4 3 11 35 127 259 162 82 83 117 111 128 154 179 132 66 24 23 38 17 0 0 0 0 0 0 0 0 1 93 109 82 1 0 0 0 0 0 0 0 0 0
4 4 3 4 5 19 158 358 325 249 208 119 54 27 12 5 79 52 32 3 0 0 1 1 0 0 0 0 0 0 40 47 63 29 2 0 0 0 0 0 0 0 0
3 4 3 4 4 3 0 1 15 8 11 12 2 1 1 2 5 2 0 1 1 0 2 1 0 0 0 0 0 0 0 0 7 19 3 0 0 0 0 0 0 0 0
1 1 0 0 0 1 1 0 1 3 2 0 0 1 2 1 1 1 0 0 1 0 0 0 0 0 0 0 0 0 0 0 0 0 0 0 0 0 0 0 0 0 0
6 0 0 0 0 0 0 1 0 0 1 1 1 1 4 1 1 0 0 1 3 3 5 6 1 0 0 0 0 0 0 0 0 0 0 0 0 0 0 0 0 0 0
0 1 0 0 0 0 0 0 0 0 0 0 0 0 0 0 0 0 0 0 0 0 1 1 2 0 0 0 0 0 0 0 0 0 0 0 0 0 0 0 0 0 0
0 0 0 0 0 0 0 0 0 0 0 0 0 0 0 0 0 0 0 0 0 0 0 0 0 0 0 0 0 0 0 0 0 0 0 0 0 0 0 0 0 0 0
CIN
-3 -2 -3 -1 -6 -13 -8 -2 -1 -1 -1 -2 -1 -1 -1 -1 -0 -1 -0 -10 -2 -2 -4 -4 -11 -2 -1 -5 -4 -4 -4 -2 -5 -3 -3 -10 -37 -50 -51 -29 -11 -7 -6
-1 -1 -2 -3 -2 -15 -2 -3 -2 -1 -0 -1 -5 -2 -1 -1 -1 -1 -0 -1 0 -5 -2 -4 -10 -8 -1 -4 -4 -9 -2 -1 -5 -2 -4 -5 -32 -51 -15 -14 -11 -6 -6
-2 -2 -1 -2 -2 -4 -14 -2 -1 -1 -6 -2 -2 -2 -3 -7 -5 -1 -1 -1 -1 -1 -4 -13 -7 -13 -15 -1 -5 -5 -12 -2 -8 -17 -2 -1 -2 -0 -6 -10 -5 -14 -8
-2 -2 -2 -1 -2 -3 -9 -4 -3 -2 -9 -11 -2 -5 -6 -2 -3 -4 -4 -1 -0 -1 -0 -6 -11 -17 -9 -12 -2 -1 -6 -10 -1 -7 -9 -21 -17 -1 -3 -7 -4 -12 -7
-2 -11 -1 -6 -3 -3 -9 -6 -2 -5 -1 -5 -4 -6 -4 -2 -2 -1 -2 -5 -1 -0 -0 -1 -10 -18 -23 -16 -12 -4 -4 -1 -4 -2 -2 -11 -5 -14 -1 -2 -2 -3 -6
-4 -1 -1 -2 -3 -2 -9 -6 -4 -5 -10 -7 -13 -7 -1 -3 -2 -8 -1 -3 -5 -2 -0 -0 -3 -11 -7 -19 -8 -0 -6 -6 -8 -2 -9 -1 -2 -1 -1 -0 -1 -2 -1
-3 -10 -1 -3 -2 -4 -17 -14 -14 -7 -8 -1 -1 -15 -13 -9 -4 -4 -7 -12 -2 -1 -1 -1 -1 -4 -3 -2 -10 -1 -0 -2 -2 -6 -1 -2 -11 -15 -3 -2 -1 -1 -2
-4 -7 -7 -4 -2 -11 -32 -27 -22 -14 -8 -1 -7 -0 -3 -7 -4 -13 -10 -15 -17 -22 -15 -11 -3 -3 -0 -1 -3 -8 -3 -1 -2 -0 -3 -3 -1 -3 -1 -1 -1 -1 -2
-16 -4 -5 -19 -12 -13 -38 -38 -30 -17 -10 -8 -3 -1 -1 -3 -2 -1 -5 -3 -7 -8 -2 -1 -1 -6 -3 -6 -1 -4 -2 -2 -1 -1 -2 -6 -1 -1 -2 -1 -1 -1 -2
-46 -8 -16 -19 -23 -32 -36 -37 -28 -22 -12 -5 -5 -2 -1 -1 -0 -0 -3 -1 -0 -8 -4 -3 -1 -0 -1 -1 -1 -1 -1 -1 -1 -1 -1 -7 -2 -0 -2 -1 -3 -1 -1
-83 -26 -27 -28 -39 -42 -30 -44 -34 -20 -6 -1 -2 -1 -2 -1 -0 -0 -0 -2 -1 -2 -8 -1 -0 -0 -1 -1 -0 -0 -1 -0 -0 -0 -0 -0 -0 -1 -1 -1 -2 -4 -3
-65 -68 -18 -36 -49 -44 -28 -33 -41 -31 -12 -3 -1 -1 -5 -2 -2 -3 -1 -1 -0 -2 -0 -1 -0 -4 -0 -1 -0 -1 -0 -1 -1 -2 -1 -1 -1 -2 -1 -1 -1 -1 -2
-23 -91 -67 -37 -78 -110 -34 -23 -35 -38 -18 -8 -4 -1 -1 -2 -4 -1 -0 -1 -0 -0 -1 -1 -3 -2 -2 -2 -3 -4 -0 -0 -1 -1 -2 -1 -1 -1 -2 -2 -4 -1 -3
-127 -135 -104 -131 -135 -111 -71 -20 -30 -27 -28 -15 -10 -2 -4 -2 -3 -1 -0 -0 -0 0 -0 -0 -0 -1 -1 -1 -0 -1 -0 -1 -1 -1 -1 -1 -1 -1 -1 -1 -1 -23 -11
-45 -57 -87 -148 -137 -126 -96 -14 -12 -13 -19 -30 -11 -9 -10 -7 -1 -1 -1 -0 -0 -0 -0 -0 -0 -0 -1 -2 -0 -0 -0 -1 -1 -0 -0 -3 -14 -64 -37 -9 -22 -25 -3
-34 -2 -65 -50 -55 -77 -83 -62 -0 -1 -26 -63 -63 -11 -2 -5 -2 -1 -0 -0 -0 -1 -1 -0 -0 -0 -6 0 0 0 -35 -1 -0 -0 -1 -5 -97 -2 0 -128 -111 -75 -31
-45 -9 -0 -0 -19 -48 -53 -28 -4 -0 -21 -76 -51 -2 -1 -1 -1 -0 -0 -7 -21 -2 -2 -1 -12 -28 -83 0 0 0 0 -32 -9 -1 -0 -0 -23 -73 -26 0 0 0 0
-11 -2 -0 -6 -28 -18 -1 -1 -15 -23 -4 -53 -45 -39 -24 -12 -0 -19 -28 -45 -18 -4 -2 -6 -31 -32 0 0 0 0 0 -60 -9 -26 -5 -0 -45 0 0 -62 0 0 0
-222 -178 -166 -74 -34 -18 -23 -47 -45 -58 -60 -71 -52 -48 -41 -20 -25 -31 -50 -38 -3 -4 -30 -14 0 0 0 0 0 0 -58 -87 0 0 0 0 0 0 0 -49 -31 0 0
0 0 0 -183 -158 -83 -4 -37 -55 -69 -26 -76 -74 -8 0 -1 -1 -2 -2 -1 0 -8 0 0 0 0 0 0 0 -140 -10 -11 -49 -39 0 0 0 0 0 0 0 0 0
0 0 0 -272 -235 -251 -52 -1 -0 0 -4 -13 -44 -44 -49 -11 -0 -2 -4 -43 0 0 0 0 0 0 0 0 0 0 -131 -79 -66 -117 -68 0 0 0 0 0 0 0 0
0 0 0 0 0 0 0 -80 -45 -61 -36 -32 -27 0 -70 -52 -48 -14 0 0 0 0 0 0 0 0 0 0 0 0 0 0 -77 -206 -96 0 0 0 0 0 0 0 0
0 0 0 0 0 0 0 0 0 0 0 0 0 0 0 0 0 -8 0 0 0 0 0 0 0 0 0 0 0 0 0 0 0 0 0 0 0 0 0 0 0 0 0
-0 0 0 0 0 0 0 0 0 0 0 0 0 0 0 0 0 0 0 0 0 0 0 0 0 0 0 0 0 0 0 0 0 0 0 0 0 0 0 0 0 0 0
-0 -0 -0 0 0 0 0 0 0 0 0 0 0 0 0 0 0 0 0 0 0 0 0 0 0 0 0 0 0 0 0 0 0 0 0 0 0 0 0 0 0 0 0
0 0 0 0 0 0 0 0 0 0 0 0 0 0 0 0 0 0 0 0 0 0 0 0 0 0 0 0 0 0 0 0 0 0 0 0 0 0 0 0 0 0 0
Wind_Speed
11 15 23 18 14 16 19 23 31 30 29 27 26 25 23 22 22 20 19 20 19 18 19 19 18 16 14 13 14 16 16 14 19 20 20 19 19 18 16 14 14 13 11
9 11 21 22 24 16 25 23 30 31 30 28 25 24 24 23 22 22 21 21 21 19 19 19 19 17 16 14 14 16 17 15 17 19 19 14 14 15 14 11 11 10 9
12 9 23 25 27 18 22 29 30 31 31 28 28 25 23 21 21 22 23 23 22 21 20 20 20 19 19 16 16 16 17 14 15 18 18 14 14 11 10 9 8 10 8
10 13 18 24 25 24 10 31 33 32 31 32 29 29 26 24 23 22 21 20 23 22 20 20 21 21 20 20 19 18 18 19 16 9 13 17 17 14 10 9 9 10 8
15 26 19 19 23 18 13 14 34 34 32 31 26 29 27 26 24 23 22 23 22 22 23 22 21 21 22 21 21 21 18 19 20 21 11 13 9 12 10 16 14 12 11
19 16 14 9 17 14 9 4 5 34 34 33 18 29 25 25 24 24 24 24 24 24 25 24 23 23 22 22 22 20 20 21 20 20 19 21 23 11 7 5 7 4 12
17 16 24 11 9 12 8 5 19 35 36 33 29 31 29 28 27 27 26 26 25 25 22 25 25 25 24 22 22 22 22 21 20 19 20 19 19 16 18 16 12 6 17
25 21 19 15 13 10 8 7 6 32 34 35 34 32 31 28 28 27 24 27 26 27 26 27 27 27 25 22 20 23 24 17 23 20 21 22 15 18 20 23 24 18 7
48 21 18 20 17 12 10 9 10 8 22 30 35 34 32 31 29 26 23 27 25 26 25 25 26 26 14 16 16 21 18 17 15 16 15 13 15 12 14 20 21 23 20
42 41 21 21 20 19 15 14 13 11 9 9 9 13 30 29 30 28 27 26 25 23 21 21 17 11 13 12 13 20 16 15 17 15 15 17 20 16 9 15 16 17 17
39 32 26 22 23 21 19 16 14 14 11 12 16 23 21 23 24 28 27 25 23 23 19 18 17 16 17 15 14 16 21 12 13 17 16 13 17 16 17 14 13 14 11
26 34 33 31 24 23 21 19 17 14 15 14 15 18 19 21 23 24 24 20 17 16 18 17 17 19 18 15 16 17 24 14 15 10 13 14 19 16 14 12 12 19 19
22 32 32 27 29 26 22 20 19 18 16 15 13 15 17 18 17 14 16 16 16 16 17 18 19 20 21 21 19 21 20 22 21 21 15 15 18 12 16 14 13 12 6
17 16 27 36 33 28 29 27 22 21 19 16 16 13 12 11 10 12 12 14 15 16 17 18 20 20 20 20 22 24 22 23 24 25 24 15 27 21 15 15 16 18 21
20 20 21 39 35 29 28 29 26 24 21 19 19 18 16 15 13 12 12 13 15 15 17 17 19 21 22 22 22 23 23 23 24 25 23 20 22 22 20 17 14 13 14
28 26 26 28 28 33 29 29 28 24 23 21 25 28 24 19 15 15 12 13 15 16 16 18 20 21 20 21 22 23 25 25 24 24 22 18 17 16 15 15 16 18 22
22 20 18 21 27 28 27 28 25 19 23 23 24 29 28 22 19 17 15 16 19 20 21 18 22 22 23 22 24 23 23 26 26 24 24 18 18 17 17 17 17 19 21
14 14 16 17 16 21 19 21 22 21 22 22 22 26 27 27 21 22 21 22 22 20 20 18 17 23 25 26 26 24 24 24 23 22 22 19 16 18 19 19 20 20 21
14 12 13 12 12 18 23 23 28 22 25 26 27 28 28 28 24 28 24 23 20 18 18 18 17 18 21 23 21 20 21 22 22 22 20 19 17 19 21 18 15 16 17
14 13 12 10 12 9 13 11 15 19 24 23 27 25 25 21 25 21 18 21 16 15 14 15 14 13 17 20 20 18 18 20 19 18 18 18 20 18 16 16 15 15 13
14 14 14 13 15 11 8 14 10 18 16 13 17 16 17 19 19 17 18 20 18 14 14 14 12 14 14 16 17 17 17 18 18 18 19 17 19 18 17 17 16 16 15
14 14 14 15 15 14 8 8 12 11 9 10 11 14 15 15 13 14 13 12 9 11 13 10 12 14 15 17 18 17 18 20 22 22 20 21 22 20 20 18 19 17 15
12 13 13 13 14 13 11 8 11 10 10 10 12 14 15 12 14 13 11 10 11 13 12 13 10 14 15 16 17 18 19 20 21 21 19 21 20 17 18 18 17 16 17
12 12 13 14 13 14 14 12 11 11 10 10 11 12 11 11 14 14 14 13 12 13 15 14 14 14 17 19 20 21 20 20 18 19 19 19 20 20 17 16 16 18 18
11 11 12 11 12 13 13 12 12 12 12 12 13 13 13 13 13 13 14 16 16 14 14 12 15 16 18 14 13 15 18 21 21 21 20 21 20 19 19 18 18 19 18
11 10 12 13 12 11 12 15 14 12 12 13 13 14 14 14 14 14 15 15 14 14 13 14 15 15 15 15 16 18 20 22 22 22 22 23 23 22 20 20 20 18 19
Wind_Direction
130 128 144 124 114 121 128 135 168 170 176 180 177 178 183 187 192 197 200 203 205 207 207 208 213 217 229 235 230 219 220 238 205 178 171 162 165 152 155 140 119 84 110
144 136 145 144 149 130 150 143 164 183 180 186 194 190 185 187 190 196 201 203 208 214 218 218 216 229 230 241 242 237 235 252 239 222 189 104 105 140 135 100 93 82 88
160 156 155 158 160 141 150 164 169 183 190 193 191 197 198 198 196 191 195 201 207 214 222 224 226 228 229 243 251 254 247 275 279 245 217 130 135 83 84 95 95 48 68
187 165 158 161 161 158 140 175 188 184 189 185 198 192 196 199 202 202 208 215 208 213 221 226 229 229 236 240 243 258 262 252 276 35 339 293 302 179 135 73 61 46 61
189 173 164 160 160 150 144 146 191 201 183 173 212 191 198 198 206 212 216 210 214 216 218 224 231 233 228 240 246 254 272 275 253 240 353 353 73 12 180 220 20 30 30
188 182 178 192 159 151 148 174 212 205 199 203 167 213 224 221 222 219 213 216 214 212 216 227 234 240 246 250 254 269 273 274 281 281 302 284 273 341 45 119 53 61 20
210 204 174 189 200 164 167 179 156 201 204 211 225 207 212 214 215 212 214 215 223 224 246 230 233 236 246 259 261 267 270 282 287 302 299 319 322 339 335 348 359 169 1
186 187 185 225 224 211 203 221 186 181 185 193 203 212 217 225 217 222 240 222 228 224 231 224 227 233 244 267 279 271 267 302 285 301 301 302 338 328 324 311 310 239 192
202 192 207 230 231 216 214 227 246 231 167 178 209 208 220 217 219 234 251 214 212 246 253 255 250 253 299 295 299 286 299 309 319 320 327 333 330 345 341 325 325 318 244
228 226 221 226 232 235 234 241 249 248 238 235 249 261 236 239 231 239 242 247 251 264 274 278 291 301 301 304 304 292 309 314 312 323 325 322 312 329 0 341 339 339 340
227 230 229 225 233 237 237 241 247 252 246 250 256 253 260 260 260 251 254 261 267 270 284 288 294 298 298 303 304 303 295 324 322 309 321 333 323 329 327 340 346 342 357
229 230 229 231 232 235 237 241 246 250 254 254 257 261 264 266 266 267 271 281 289 294 286 291 293 298 297 309 299 299 284 314 313 324 323 325 315 327 333 341 345 327 332
241 234 232 235 234 237 239 242 246 249 255 258 260 262 267 271 277 284 285 288 290 295 295 294 293 293 291 290 297 295 301 300 296 297 314 321 315 329 323 329 338 347 12
246 235 240 236 238 241 242 246 249 251 254 257 261 263 267 273 279 284 287 290 293 295 298 297 296 297 296 295 293 289 293 293 292 291 298 318 290 306 321 324 326 327 319
255 254 256 235 241 242 243 245 251 254 256 257 263 267 271 273 280 285 287 290 293 299 298 301 300 295 294 294 293 292 295 297 297 296 303 307 303 305 309 317 327 335 334
245 255 253 242 241 241 245 244 250 256 259 261 264 268 274 273 275 280 284 287 293 296 300 303 300 295 294 295 295 295 291 293 298 300 304 313 316 320 325 323 325 322 312
225 255 269 254 245 242 245 241 247 262 262 263 268 269 272 276 275 276 277 285 292 295 297 299 293 293 294 288 288 292 295 292 294 300 299 306 311 314 317 321 327 323 321
285 276 267 264 251 241 247 238 248 261 266 267 274 268 272 275 280 276 280 285 293 293 296 298 302 291 289 284 282 289 291 293 299 304 307 303 308 311 314 314 317 317 317
289 295 316 296 263 255 254 255 259 261 264 268 273 276 278 281 281 276 279 286 288 286 293 301 305 299 292 293 288 289 294 295 301 303 307 306 308 306 308 314 323 327 326
304 307 311 325 283 309 261 268 261 265 262 268 276 287 284 292 280 286 281 288 281 283 288 299 304 311 301 300 293 295 298 297 303 309 311 310 300 309 314 316 322 324 331
316 332 332 307 301 323 312 272 276 262 271 295 293 307 311 307 304 288 297 293 293 293 287 291 300 292 300 297 301 297 298 303 306 306 302 310 312 314 318 319 321 323 328
327 336 344 337 324 320 329 320 290 303 317 324 328 313 331 324 325 335 316 324 325 322 310 287 286 295 290 293 298 303 306 302 298 300 308 310 309 315 316 318 319 322 325
342 343 350 348 345 346 342 343 321 323 332 331 328 321 336 343 348 343 329 340 327 316 324 297 308 283 295 304 306 310 312 310 309 312 322 319 320 323 324 322 324 324 322
332 349 2 9 360 3 11 12 5 1 3 357 352 352 353 355 355 2 357 359 326 316 299 297 295 301 298 301 306 309 318 326 329 329 328 326 323 324 325 325 323 321 320
351 350 360 8 11 16 22 16 14 15 17 15 10 6 7 359 358 360 351 342 328 326 309 319 326 314 317 341 344 337 332 325 325 324 323 321 321 319 318 320 320 321 321
12 3 16 27 18 5 5 21 16 7 9 16 12 9 11 8 6 4 356 354 352 358 355 337 335 339 339 339 332 327 323 319 318 316 316 313 312 311 313 312 313 315 316